This is the latest recevied weather packets stored in our database for station/object N8HON. If no packets are shown the sender has not sent any weather packets the latest 10 day(s).
| Time | Temp. | Humidity | Pressure | Rain* | Wind** | Luminosity | Snow |
|---|---|---|---|---|---|---|---|
| 1777861830 | 8.33° C | 50% | 1014.4 hPa | 0 mm | - | 0 W/m² | - |
| 1777861526 | 8.33° C | 52% | 1014.2 hPa | 0 mm | - | 0 W/m² | - |
| 1777861223 | 7.78° C | 56% | 1014.1 hPa | 0 mm | - | 0 W/m² | - |
| 1777860920 | 8.33° C | 58% | 1014.2 hPa | 0 mm | - | 0 W/m² | - |
| 1777860617 | 8.33° C | 54% | 1014.3 hPa | 0 mm | - | 0 W/m² | - |
| 1777860314 | 8.33° C | 51% | 1014.2 hPa | 0 mm | - | 0 W/m² | - |
| 1777860011 | 8.89° C | 51% | 1014.2 hPa | 0 mm | - | 0 W/m² | - |
| 1777859707 | 8.89° C | 50% | 1014.2 hPa | 0 mm | - | 0 W/m² | - |
| 1777859403 | 8.33° C | 51% | 1014 hPa | 0 mm | - | 0 W/m² | - |
| 1777859099 | 8.33° C | 52% | 1013.8 hPa | 0 mm | - | 0 W/m² | - |
| 1777858796 | 8.33° C | 51% | 1013.6 hPa | 0 mm | - | 0 W/m² | - |
| 1777858494 | 8.89° C | 48% | 1013.6 hPa | 0 mm | - | 0 W/m² | - |
| 1777858190 | 8.33° C | 49% | 1013.8 hPa | 0 mm | - | 0 W/m² | - |
| 1777857888 | 8.89° C | 49% | 1013.3 hPa | 0 mm | - | 0 W/m² | - |
| 1777857586 | 8.89° C | 46% | 1013.1 hPa | 0 mm | - | 0 W/m² | - |
| 1777857282 | 8.89° C | 48% | 1013.2 hPa | 0 mm | - | 0 W/m² | - |
| 1777856978 | 8.89° C | 48% | 1013.3 hPa | 0 mm | - | 0 W/m² | - |
| 1777856674 | 8.89° C | 45% | 1013.1 hPa | 0 mm | - | 0 W/m² | - |
| 1777856370 | 9.44° C | 45% | 1013.2 hPa | 0 mm | - | 0 W/m² | - |
| 1777856067 | 9.44° C | 45% | 1013.1 hPa | 0 mm | - | 0 W/m² | - |
| 1777855765 | 9.44° C | 44% | 1013 hPa | 0 mm | - | 0 W/m² | - |
| 1777855463 | 9.44° C | 44% | 1013 hPa | 0 mm | - | 0 W/m² | - |
| 1777855159 | 9.44° C | 43% | 1012.8 hPa | 0 mm | - | 0 W/m² | - |
| 1777854855 | 10° C | 44% | 1012.9 hPa | 0 mm | - | 0 W/m² | - |
| 1777854552 | 10° C | 43% | 1012.9 hPa | 0 mm | - | 0 W/m² | - |
* Rain latest hour (hover to see other rain measurements)
** Current wind speed in m/s (hover to see current wind gust speed)